| time (UTC) | temp C | wind direction | speed KPH | gust KPH | rain 1hr cm | rain 24hr cm | rain mn cm | humidity % | barometer mb |
| 20260902100050 | 15 | 181 | 0.0 | 0.0 | 0.00 | 0.00 | 0.00 | 65 | 1016.7 |
| 20260902094534 | 15 | 231 | 0.0 | 1.6 | 0.00 | 0.00 | 0.00 | 62 | 1016.8 |
| 20260902093037 | 15 | 231 | 0.0 | 1.6 | 0.00 | 0.00 | 0.00 | 59 | 1016.6 |
| 20260902091531 | 15 | 174 | 0.0 | 0.0 | 0.00 | 0.00 | 0.00 | 55 | 1016.5 |
| 20260902090030 | 15 | 174 | 0.0 | 0.0 | 0.00 | 0.00 | 0.00 | 58 | 1016.4 |
| 20260902084532 | 15 | 178 | 0.0 | 0.0 | 0.00 | 0.00 | 0.00 | 55 | 1016.5 |
| 20260902083034 | 16 | 140 | 0.0 | 0.0 | 0.00 | 0.00 | 0.00 | 51 | 1016.6 |
| 20260902081524 | 16 | 127 | 0.0 | 0.0 | 0.00 | 0.00 | 0.00 | 50 | 1016.6 |
| 20260902080021 | 16 | 126 | 0.0 | 1.6 | 0.00 | 0.00 | 0.00 | 51 | 1016.5 |
| 20260902074525 | 16 | 154 | 0.0 | 1.6 | 0.00 | 0.00 | 0.00 | 51 | 1016.3 |
| 20260902073020 | 16 | 241 | 0.0 | 0.0 | 0.00 | 0.00 | 0.00 | 55 | 1016.2 |
| 20260902071515 | 17 | 203 | 0.0 | 1.6 | 0.00 | 0.00 | 0.00 | 58 | 1016.1 |
| 20260902070011 | 17 | 116 | 0.0 | 1.6 | 0.00 | 0.00 | 0.00 | 53 | 1016.0 |
| 20260902064511 | 17 | 158 | 0.0 | 1.6 | 0.00 | 0.00 | 0.00 | 57 | 1015.8 |
| 20260902063009 | 17 | 141 | 0.0 | 1.6 | 0.00 | 0.00 | 0.00 | 62 | 1015.8 |
| 20260902061518 | 17 | 137 | 0.0 | 0.0 | 0.00 | 0.00 | 0.00 | 65 | 1015.8 |
| 20260902060011 | 17 | 137 | 0.0 | 0.0 | 0.00 | 0.00 | 0.00 | 67 | 1015.7 |
| 20260902054507 | 18 | 143 | 0.0 | 1.6 | 0.00 | 0.00 | 0.00 | 67 | 1015.7 |
| 20260902053008 | 18 | 155 | 0.0 | 1.6 | 0.00 | 0.00 | 0.00 | 68 | 1015.8 |
| 20260902051506 | 18 | 249 | 0.0 | 0.0 | 0.00 | 0.00 | 0.00 | 66 | 1015.7 |
| 20260902050008 | 18 | 131 | 0.0 | 0.0 | 0.00 | 0.00 | 0.00 | 66 | 1015.5 |
| 20260902044506 | 18 | 131 | 0.0 | 0.0 | 0.00 | 0.00 | 0.00 | 66 | 1015.5 |
| 20260902043011 | 19 | 119 | 0.0 | 1.6 | 0.00 | 0.00 | 0.00 | 66 | 1015.3 |
| 20260902041505 | 20 | 123 | 0.0 | 1.6 | 0.00 | 0.00 | 0.00 | 64 | 1015.0 |
| 20260902040005 | 20 | 72 | 0.0 | 1.6 | 0.00 | 0.00 | 0.00 | 62 | 1014.6 |
| 20260902034504 | 20 | 105 | 0.0 | 11.3 | 0.00 | 0.00 | 0.00 | 61 | 1014.5 |
| 20260902033003 | 21 | 56 | 0.0 | 3.2 | 0.00 | 0.00 | 0.00 | 61 | 1014.1 |
| 20260902031503 | 21 | 66 | 0.0 | 6.4 | 0.00 | 0.00 | 0.00 | 60 | 1014.0 |
| 20260902030002 | 22 | 83 | 1.6 | 9.7 | 0.00 | 0.00 | 0.00 | 58 | 1013.9 |
| 20260902024501 | 22 | 129 | 1.6 | 9.7 | 0.00 | 0.00 | 0.00 | 56 | 1013.7 |
| 20260902023001 | 22 | 53 | 0.0 | 11.3 | 0.00 | 0.00 | 0.00 | 54 | 1013.6 |
| 20260902021606 | 23 | 259 | 0.0 | 12.9 | 0.00 | 0.00 | 0.00 | 53 | 1013.5 |
| 20260902020106 | 24 | 155 | 1.6 | 12.9 | 0.00 | 0.00 | 0.00 | 52 | 1013.4 |
| 20260902014559 | 25 | 13 | 3.2 | 19.3 | 0.00 | 0.00 | 0.00 | 49 | 1013.5 |
| 20260902013059 | 25 | 39 | 4.8 | 16.1 | 0.00 | 0.00 | 0.00 | 47 | 1013.5 |
| 20260902011607 | 26 | 239 | 3.2 | 14.5 | 0.00 | 0.00 | 0.00 | 46 | 1013.6 |
| 20260902010055 | 26 | 75 | 4.8 | 20.9 | 0.00 | 0.00 | 0.00 | 45 | 1013.8 |
| 20260902004555 | 27 | 108 | 3.2 | 14.5 | 0.00 | 0.00 | 0.00 | 44 | 1013.8 |
| 20260902003054 | 27 | 70 | 1.6 | 25.7 | 0.00 | 0.00 | 0.00 | 42 | 1013.9 |
| 20260902001605 | 27 | 8 | 6.4 | 20.9 | 0.00 | 0.00 | 0.00 | 41 | 1013.9 |
| 20260902000052 | 28 | 41 | 9.7 | 22.5 | 0.00 | 0.00 | 0.00 | 40 | 1014.0 |
| 20260901234603 | 28 | 326 | 6.4 | 19.3 | 0.00 | 0.00 | 0.00 | 38 | 1013.9 |
| 20260901233104 | 28 | 42 | 6.4 | 20.9 | 0.00 | 0.00 | 0.00 | 36 | 1013.9 |
| 20260901231551 | 29 | 37 | 8.0 | 19.3 | 0.00 | 0.00 | 0.00 | 35 | 1013.7 |
| 20260901230050 | 30 | 88 | 3.2 | 19.3 | 0.00 | 0.00 | 0.00 | 30 | 1014.0 |
| 20260901224552 | 29 | 30 | 1.6 | 25.7 | 0.00 | 0.00 | 0.00 | 31 | 1014.1 |
| 20260901223048 | 30 | 71 | 6.4 | 17.7 | 0.00 | 0.00 | 0.00 | 31 | 1014.1 |
| 20260901221545 | 30 | 207 | 6.4 | 27.4 | 0.00 | 0.00 | 0.00 | 28 | 1014.2 |
| 20260901220044 | 30 | 188 | 4.8 | 24.1 | 0.00 | 0.00 | 0.00 | 31 | 1014.3 |
| 20260901214544 | 29 | 28 | 8.0 | 20.9 | 0.00 | 0.00 | 0.00 | 33 | 1014.4 |
| 20260901213059 | 30 | 30 | 9.7 | 22.5 | 0.00 | 0.00 | 0.00 | 29 | 1014.5 |
| 20260901211539 | 30 | 84 | 11.3 | 0.0 | 0.00 | 0.00 | 0.00 | 29 | 1014.6 |
| 20260901210038 | 30 | 282 | 3.2 | 19.3 | 0.00 | 0.00 | 0.00 | 29 | 1014.8 |
| 20260901204535 | 29 | 40 | 9.7 | 19.3 | 0.00 | 0.00 | 0.00 | 30 | 1014.9 |
| 20260901203045 | 29 | 32 | 9.7 | 22.5 | 0.00 | 0.00 | 0.00 | 29 | 1015.0 |
| 20260901201532 | 28 | 77 | 11.3 | 22.5 | 0.00 | 0.00 | 0.00 | 27 | 1015.2 |
| 20260901200038 | 28 | 43 | 3.2 | 17.7 | 0.00 | 0.00 | 0.00 | 32 | 1015.4 |
| 20260901194526 | 28 | 34 | 4.8 | 14.5 | 0.00 | 0.00 | 0.00 | 31 | 1015.6 |
| 20260901193025 | 27 | 29 | 6.4 | 16.1 | 0.00 | 0.00 | 0.00 | 33 | 1015.7 |
| 20260901191521 | 27 | 49 | 4.8 | 12.9 | 0.00 | 0.00 | 0.00 | 34 | 1015.8 |
| 20260901190026 | 27 | 75 | 8.0 | 14.5 | 0.00 | 0.00 | 0.00 | 33 | 1016.0 |
| 20260901184517 | 26 | 12 | 0.0 | 14.5 | 0.00 | 0.00 | 0.00 | 39 | 1016.1 |
| 20260901183017 | 26 | 30 | 3.2 | 16.1 | 0.00 | 0.00 | 0.00 | 40 | 1016.3 |
| 20260901181518 | 25 | 41 | 6.4 | 14.5 | 0.00 | 0.00 | 0.00 | 43 | 1016.3 |
| 20260901180010 | 25 | 71 | 4.8 | 12.9 | 0.00 | 0.00 | 0.00 | 51 | 1016.3 |
| 20260901174507 | 24 | 68 | 1.6 | 9.7 | 0.00 | 0.00 | 0.00 | 55 | 1016.3 |
| 20260901173003 | 23 | 342 | 3.2 | 9.7 | 0.00 | 0.00 | 0.00 | 61 | 1016.1 |
| 20260901171502 | 23 | 32 | 1.6 | 6.4 | 0.00 | 0.00 | 0.00 | 62 | 1016.1 |
| 20260901164603 | 22 | 58 | 0.0 | 8.0 | 0.00 | 0.00 | 0.00 | 66 | 1015.9 |
| 20260901163057 | 22 | 4 | 1.6 | 6.4 | 0.00 | 0.00 | 0.00 | 68 | 1015.9 |
| 20260901161554 | 22 | 37 | 1.6 | 6.4 | 0.00 | 0.00 | 0.00 | 68 | 1015.9 |
| 20260901160058 | 22 | 264 | 0.0 | 4.8 | 0.00 | 0.00 | 0.00 | 68 | 1015.8 |
| 20260901154558 | 21 | 343 | 0.0 | 3.2 | 0.00 | 0.00 | 0.00 | 69 | 1015.7 |
| 20260901153052 | 21 | 338 | 0.0 | 3.2 | 0.00 | 0.00 | 0.00 | 71 | 1015.8 |
| 20260901151545 | 20 | 329 | 0.0 | 3.2 | 0.00 | 0.00 | 0.00 | 70 | 1015.8 |
| 20260901150042 | 20 | 3 | 0.0 | 0.0 | 0.00 | 0.00 | 0.00 | 65 | 1015.7 |
| 20260901144543 | 18 | 21 | 0.0 | 0.0 | 0.00 | 0.00 | 0.00 | 68 | 1015.7 |
| 20260901143043 | 17 | 142 | 0.0 | 0.0 | 0.00 | 0.00 | 0.00 | 69 | 1015.5 |
| 20260901141545 | 17 | 142 | 0.0 | 0.0 | 0.00 | 0.00 | 0.00 | 68 | 1015.2 |
| 20260901140035 | 16 | 142 | 0.0 | 0.0 | 0.00 | 0.00 | 0.00 | 68 | 1015.1 |
| 20260901134534 | 16 | 148 | 0.0 | 0.0 | 0.00 | 0.00 | 0.00 | 69 | 1014.9 |
| 20260901133033 | 16 | 152 | 0.0 | 0.0 | 0.00 | 0.00 | 0.00 | 70 | 1014.7 |
| 20260901131532 | 16 | 152 | 0.0 | 0.0 | 0.00 | 0.00 | 0.00 | 72 | 1014.5 |
| 20260901130030 | 16 | 152 | 0.0 | 0.0 | 0.00 | 0.00 | 0.00 | 72 | 1014.5 |
| 20260901124530 | 16 | 156 | 0.0 | 0.0 | 0.00 | 0.00 | 0.00 | 74 | 1014.4 |
| 20260901123036 | 16 | 167 | 0.0 | 0.0 | 0.00 | 0.00 | 0.00 | 76 | 1014.4 |
| 20260901121530 | 16 | 229 | 0.0 | 0.0 | 0.00 | 0.00 | 0.00 | 76 | 1014.5 |
| 20260901120026 | 16 | 236 | 0.0 | 0.0 | 0.00 | 0.00 | 0.00 | 75 | 1014.6 |
| 20260901114524 | 16 | 233 | 0.0 | 0.0 | 0.00 | 0.00 | 0.00 | 72 | 1014.8 |
| 20260901113024 | 16 | 178 | 0.0 | 0.0 | 0.00 | 0.00 | 0.00 | 63 | 1014.7 |
| 20260901111522 | 16 | 176 | 0.0 | 0.0 | 0.00 | 0.00 | 0.00 | 58 | 1014.7 |
| 20260901110022 | 16 | 153 | 0.0 | 0.0 | 0.00 | 0.00 | 0.00 | 57 | 1014.5 |
| 20260901104527 | 16 | 153 | 0.0 | 0.0 | 0.00 | 0.00 | 0.00 | 60 | 1014.6 |
| 20260901103018 | 17 | 140 | 0.0 | 0.0 | 0.00 | 0.00 | 0.00 | 66 | 1014.6 |
| 20260901101516 | 16 | 156 | 0.0 | 0.0 | 0.00 | 0.00 | 0.00 | 68 | 1014.6 |